This is the latest recevied weather packets stored in our database for station/object OK1TBF-15. If no packets are shown the sender has not sent any weather packets the latest 10 day(s).
| Time | Temp. | Humidity | Pressure | Rain* | Wind** | Luminosity | Snow |
|---|---|---|---|---|---|---|---|
| 1778132643 | 12.22° C | 77% | 1010.8 hPa | - | - | - | - |
| 1778132043 | 12.22° C | 80% | 1010.6 hPa | - | - | - | - |
| 1778131443 | 11.67° C | 80% | 1010.4 hPa | - | - | - | - |
| 1778130843 | 11.67° C | 80% | 1010.4 hPa | - | - | - | - |
| 1778130243 | 11.67° C | 80% | 1010.3 hPa | - | - | - | - |
| 1778129643 | 11.67° C | 81% | 1010.1 hPa | - | - | - | - |
| 1778129043 | 11.67° C | 82% | 1009.9 hPa | - | - | - | - |
| 1778128443 | 11.67° C | 82% | 1009.9 hPa | - | - | - | - |
| 1778127843 | 11.67° C | 83% | 1009.8 hPa | - | - | - | - |
| 1778127243 | 11.11° C | 83% | 1009.5 hPa | - | - | - | - |
| 1778126643 | 11.11° C | 84% | 1009.4 hPa | - | - | - | - |
| 1778126043 | 11.11° C | 84% | 1009.2 hPa | - | - | - | - |
| 1778125443 | 11.11° C | 84% | 1009.2 hPa | - | - | - | - |
| 1778124843 | 11.11° C | 84% | 1009.2 hPa | - | - | - | - |
| 1778124247 | 11.11° C | 83% | 1009.1 hPa | - | - | - | - |
| 1778123865 | 11.11° C | 82% | 1009.1 hPa | - | - | - | - |
| 1778123265 | 11.67° C | 81% | 1009.1 hPa | - | - | - | - |
| 1778122665 | 11.67° C | 80% | 1008.9 hPa | - | - | - | - |
| 1778122065 | 11.67° C | 79% | 1008.7 hPa | - | - | - | - |
| 1778121465 | 11.67° C | 75% | 1008.4 hPa | - | - | - | - |
| 1778120865 | 11.67° C | 75% | 1008.2 hPa | - | - | - | - |
| 1778120265 | 11.67° C | 76% | 1008.2 hPa | - | - | - | - |
| 1778119665 | 11.67° C | 78% | 1008.2 hPa | - | - | - | - |
| 1778119065 | 11.67° C | 80% | 1008.3 hPa | - | - | - | - |
| 1778118465 | 11.67° C | 82% | 1008.2 hPa | - | - | - | - |
* Rain since midnight (hover to see other rain measurements)
** Current wind speed in m/s (hover to see current wind gust speed)